Location: ?????????
(55.6553°N, 38.9075°E)
Time: 19:21:13
(UTC+00:00)

SL-16 R/B - Pass Details

Date: 18 October 2019
Orbit: 842 x 846 km, 71.0° (Epoch: 17 November)

Event Time Altitude Azimuth Distance (km) Brightness Sun altitude
Exits shadow 01:35:17 32° 298° (WNW) 1,411 3.0 -21.0°
Maximum altitude 01:36:24 35° 322° (NW) 1,338 3.0 -20.9°
Drops below altitude 10° 01:41:37 10° 28° (NNE) 2,481 5.2 -20.1°
Sets 01:44:17 0° 38° (NE) 3,420 6.2 -19.8°
